Location: Le Petit-Vavre
(46.5081°N, 1.5239°E)
Time: 21:42:14
(UTC+00:00)

Cosmos 2219 Rocket - Pass Details

Date: 03 March 2021
Orbit: 826 x 848 km, 71.0° (Epoch: 22 April)

Event Time Altitude Azimuth Distance (km) Brightness Sun altitude
Rises 19:22:42 0° 184° (S) 3,351 5.3 -17.9°
Reaches altitude 10° 19:25:13 10° 177° (S) 2,423 4.5 -18.3°
Maximum altitude 19:30:25 43° 108° (ESE) 1,159 2.4 -19.2°
Drops below altitude 10° 19:35:40 10° 38° (NE) 2,449 4.4 -20.1°
Sets 19:38:13 0° 32° (NNE) 3,391 5.1 -20.5°
